GFSMA_prec_precacc_069.txt.gz
Total_Precipitation_Accumulation
0.07 0.01 0.01 0.00 0.00 0.00 0.00 0.00 0.00 0.00 0.00 0.00 0.00 0.00 0.00 0.00 0.00 0.00 0.00 0.00 0.00 0.00 0.00 0.02 0.02 0.01 0.00 0.00 0.00 0.00 0.00 0.00 0.01 0.05 0.07 0.08 0.10 0.15 0.19 0.21 0.22 0.17 0.21
0.05 0.02 0.04 0.02 0.01 0.01 0.00 0.00 0.00 0.00 0.00 0.00 0.00 0.00 0.00 0.00 0.00 0.00 0.00 0.00 0.00 0.00 0.00 0.00 0.03 0.02 0.01 0.00 0.00 0.00 0.00 0.00 0.00 0.01 0.05 0.08 0.08 0.10 0.12 0.16 0.23 0.28 0.23
0.03 0.03 0.08 0.12 0.08 0.00 0.00 0.00 0.00 0.00 0.00 0.00 0.00 0.00 0.00 0.00 0.00 0.00 0.00 0.00 0.00 0.00 0.00 0.00 0.01 0.04 0.03 0.00 0.00 0.00 0.00 0.00 0.00 0.01 0.01 0.05 0.06 0.06 0.11 0.10 0.16 0.28 0.35
0.04 0.04 0.05 0.07 0.12 0.04 0.00 0.00 0.00 0.00 0.00 0.00 0.00 0.00 0.00 0.00 0.00 0.00 0.00 0.00 0.00 0.00 0.00 0.00 0.00 0.01 0.02 0.00 0.01 0.00 0.00 0.00 0.00 0.01 0.01 0.02 0.03 0.05 0.05 0.08 0.19 0.41 0.42
0.04 0.02 0.02 0.07 0.08 0.06 0.02 0.00 0.00 0.00 0.00 0.00 0.00 0.00 0.00 0.00 0.00 0.00 0.00 0.00 0.00 0.00 0.00 0.00 0.00 0.00 0.01 0.01 0.01 0.01 0.01 0.01 0.00 0.00 0.00 0.00 0.01 0.03 0.05 0.15 0.26 0.36 0.41
0.03 0.02 0.04 0.11 0.17 0.08 0.04 0.02 0.04 0.02 0.01 0.00 0.00 0.00 0.00 0.00 0.00 0.00 0.00 0.00 0.00 0.00 0.00 0.00 0.00 0.00 0.00 0.00 0.00 0.00 0.02 0.03 0.03 0.01 0.00 0.01 0.00 0.01 0.02 0.07 0.25 0.46 0.48
0.07 0.05 0.10 0.11 0.20 0.12 0.06 0.03 0.03 0.03 0.02 0.01 0.00 0.00 0.00 0.00 0.00 0.00 0.00 0.00 0.00 0.01 0.00 0.00 0.00 0.00 0.00 0.00 0.00 0.00 0.00 0.02 0.02 0.02 0.03 0.02 0.01 0.00 0.00 0.02 0.06 0.15 0.39
0.09 0.07 0.09 0.07 0.09 0.11 0.05 0.02 0.02 0.03 0.02 0.02 0.00 0.03 0.03 0.02 0.00 0.00 0.00 0.00 0.01 0.02 0.02 0.01 0.00 0.00 0.00 0.00 0.00 0.00 0.00 0.00 0.00 0.00 0.01 0.04 0.03 0.01 0.01 0.02 0.03 0.06 0.11
0.08 0.11 0.10 0.09 0.10 0.15 0.06 0.04 0.02 0.03 0.17 0.07 0.01 0.09 0.11 0.06 0.05 0.01 0.00 0.00 0.00 0.00 0.02 0.05 0.03 0.01 0.00 0.00 0.00 0.00 0.00 0.00 0.00 0.00 0.00 0.00 0.01 0.01 0.01 0.02 0.02 0.04 0.03
0.07 0.15 0.19 0.18 0.15 0.21 0.13 0.07 0.06 0.05 0.35 0.23 0.08 0.02 0.01 0.03 0.05 0.04 0.01 0.00 0.00 0.01 0.01 0.04 0.04 0.03 0.03 0.01 0.00 0.00 0.00 0.00 0.00 0.00 0.00 0.00 0.00 0.01 0.01 0.03 0.04 0.05 0.05
0.16 0.20 0.25 0.31 0.26 0.24 0.28 0.35 0.26 0.20 0.25 0.26 0.11 0.10 0.04 0.04 0.06 0.07 0.07 0.06 0.02 0.03 0.03 0.03 0.03 0.03 0.07 0.07 0.07 0.06 0.04 0.01 0.00 0.00 0.00 0.00 0.00 0.01 0.02 0.04 0.06 0.08 0.09
0.30 0.35 0.33 0.28 0.31 0.31 0.32 0.36 0.38 0.47 0.44 0.42 0.36 0.32 0.25 0.20 0.15 0.13 0.11 0.12 0.16 0.13 0.10 0.05 0.01 0.02 0.07 0.10 0.12 0.10 0.09 0.08 0.06 0.03 0.01 0.01 0.01 0.01 0.04 0.06 0.09 0.13 0.15
0.73 0.31 0.21 0.18 0.18 0.24 0.26 0.22 0.22 0.21 0.25 0.28 0.31 0.29 0.25 0.20 0.21 0.26 0.25 0.19 0.15 0.08 0.02 0.00 0.00 0.00 0.07 0.20 0.22 0.22 0.18 0.13 0.10 0.09 0.09 0.08 0.06 0.04 0.06 0.06 0.07 0.11 0.17
0.29 0.18 0.12 0.11 0.12 0.16 0.17 0.15 0.14 0.12 0.14 0.17 0.19 0.21 0.21 0.16 0.16 0.17 0.18 0.23 0.18 0.05 0.01 0.00 0.00 0.00 0.00 0.03 0.11 0.17 0.15 0.10 0.11 0.16 0.19 0.16 0.11 0.08 0.07 0.05 0.04 0.04 0.05
0.20 0.19 0.16 0.12 0.11 0.11 0.12 0.14 0.14 0.16 0.16 0.16 0.17 0.16 0.13 0.10 0.09 0.09 0.10 0.15 0.34 0.26 0.04 0.00 0.00 0.00 0.00 0.00 0.03 0.09 0.15 0.13 0.08 0.07 0.07 0.09 0.11 0.11 0.11 0.08 0.06 0.04 0.03
0.29 0.37 0.27 0.20 0.14 0.12 0.14 0.14 0.11 0.11 0.13 0.12 0.13 0.15 0.15 0.12 0.13 0.11 0.13 0.16 0.17 0.30 0.26 0.03 0.00 0.00 0.00 0.00 0.01 0.03 0.03 0.06 0.05 0.04 0.05 0.06 0.06 0.06 0.08 0.06 0.06 0.09 0.07
0.47 0.57 0.41 0.25 0.20 0.21 0.18 0.15 0.17 0.20 0.19 0.20 0.20 0.22 0.21 0.19 0.20 0.23 0.28 0.35 0.41 0.43 0.41 0.15 0.06 0.04 0.00 0.00 0.00 0.00 0.00 0.02 0.05 0.03 0.03 0.04 0.06 0.05 0.05 0.07 0.05 0.05 0.07
0.16 0.17 0.20 0.17 0.14 0.19 0.25 0.24 0.20 0.17 0.21 0.31 0.41 0.40 0.32 0.28 0.32 0.33 0.34 0.30 0.24 0.20 0.23 0.19 0.09 0.03 0.01 0.00 0.00 0.00 0.01 0.00 0.02 0.05 0.08 0.06 0.12 0.16 0.08 0.04 0.05 0.05 0.03
0.21 0.16 0.13 0.15 0.14 0.16 0.19 0.21 0.22 0.28 0.40 0.42 0.32 0.28 0.25 0.26 0.26 0.22 0.20 0.17 0.14 0.13 0.12 0.14 0.09 0.04 0.03 0.01 0.01 0.01 0.01 0.02 0.03 0.04 0.08 0.12 0.15 0.13 0.19 0.10 0.03 0.02 0.02
0.16 0.13 0.11 0.11 0.11 0.10 0.14 0.21 0.29 0.25 0.15 0.13 0.12 0.12 0.12 0.13 0.13 0.13 0.14 0.13 0.13 0.14 0.13 0.11 0.12 0.07 0.03 0.02 0.03 0.03 0.04 0.04 0.04 0.02 0.05 0.09 0.16 0.13 0.11 0.15 0.12 0.05 0.04
0.16 0.17 0.14 0.11 0.12 0.15 0.21 0.18 0.10 0.06 0.05 0.04 0.03 0.04 0.05 0.11 0.12 0.10 0.11 0.13 0.15 0.18 0.18 0.09 0.08 0.06 0.06 0.05 0.06 0.06 0.06 0.04 0.02 0.03 0.04 0.04 0.06 0.12 0.10 0.13 0.19 0.17 0.12
0.22 0.20 0.19 0.27 0.36 0.33 0.24 0.17 0.12 0.07 0.06 0.06 0.06 0.05 0.07 0.15 0.10 0.13 0.14 0.15 0.17 0.20 0.18 0.10 0.08 0.07 0.06 0.07 0.10 0.13 0.13 0.09 0.08 0.04 0.06 0.05 0.04 0.06 0.07 0.13 0.13 0.19 0.17
0.33 0.33 0.42 0.41 0.28 0.13 0.19 0.16 0.15 0.08 0.08 0.07 0.08 0.08 0.08 0.10 0.16 0.09 0.15 0.15 0.12 0.13 0.16 0.14 0.14 0.13 0.15 0.11 0.11 0.09 0.08 0.09 0.10 0.03 0.06 0.05 0.01 0.01 0.01 0.03 0.04 0.12 0.20
0.38 0.36 0.26 0.18 0.14 0.14 0.22 0.18 0.19 0.07 0.06 0.07 0.07 0.07 0.06 0.07 0.12 0.11 0.13 0.14 0.07 0.08 0.09 0.08 0.13 0.16 0.16 0.11 0.09 0.10 0.11 0.11 0.06 0.02 0.03 0.08 0.02 0.03 0.02 0.03 0.02 0.04 0.13
0.18 0.14 0.11 0.11 0.10 0.12 0.22 0.16 0.14 0.04 0.09 0.11 0.11 0.13 0.16 0.13 0.33 0.34 0.27 0.29 0.33 0.36 0.38 0.35 0.33 0.29 0.20 0.11 0.09 0.18 0.16 0.18 0.14 0.04 0.03 0.12 0.05 0.04 0.02 0.01 0.00 0.00 0.02
0.09 0.06 0.08 0.08 0.15 0.10 0.21 0.13 0.09 0.03 0.07 0.08 0.11 0.19 0.35 0.28 0.48 0.37 0.31 0.28 0.29 0.27 0.24 0.22 0.17 0.11 0.06 0.05 0.05 0.11 0.17 0.36 0.32 0.26 0.10 0.23 0.07 0.11 0.17 0.02 0.00 0.00 0.01

GFSMA_prec_precacc_072.txt.gz
Total_Precipitation_Accumulation
0.13 0.11 0.02 0.00 0.00 0.00 0.00 0.00 0.00 0.00 0.00 0.00 0.00 0.00 0.00 0.00 0.00 0.00 0.00 0.00 0.00 0.00 0.00 0.02 0.02 0.01 0.00 0.00 0.00 0.00 0.00 0.00 0.01 0.05 0.07 0.08 0.10 0.15 0.19 0.21 0.22 0.17 0.21
0.14 0.13 0.06 0.02 0.01 0.01 0.00 0.00 0.00 0.00 0.00 0.00 0.00 0.00 0.00 0.00 0.00 0.00 0.00 0.00 0.00 0.00 0.00 0.00 0.03 0.02 0.01 0.00 0.00 0.00 0.00 0.00 0.00 0.01 0.05 0.08 0.08 0.10 0.12 0.16 0.23 0.28 0.23
0.09 0.10 0.11 0.12 0.08 0.00 0.00 0.00 0.00 0.00 0.00 0.00 0.00 0.00 0.00 0.00 0.00 0.00 0.00 0.00 0.00 0.00 0.00 0.01 0.01 0.04 0.03 0.00 0.00 0.00 0.00 0.00 0.00 0.01 0.01 0.05 0.06 0.06 0.11 0.10 0.16 0.28 0.35
0.10 0.09 0.09 0.08 0.12 0.05 0.00 0.00 0.00 0.00 0.00 0.00 0.00 0.00 0.00 0.00 0.00 0.00 0.00 0.00 0.00 0.00 0.00 0.00 0.01 0.01 0.02 0.00 0.01 0.00 0.00 0.00 0.00 0.01 0.01 0.02 0.03 0.05 0.05 0.08 0.19 0.41 0.42
0.07 0.04 0.08 0.10 0.08 0.06 0.02 0.00 0.00 0.00 0.00 0.00 0.00 0.00 0.00 0.00 0.00 0.00 0.00 0.00 0.00 0.00 0.00 0.00 0.00 0.00 0.01 0.01 0.01 0.01 0.02 0.01 0.00 0.00 0.00 0.00 0.01 0.03 0.05 0.15 0.26 0.36 0.41
0.05 0.03 0.07 0.13 0.18 0.09 0.04 0.02 0.04 0.02 0.01 0.00 0.00 0.00 0.00 0.00 0.00 0.00 0.00 0.00 0.00 0.00 0.00 0.00 0.00 0.00 0.00 0.00 0.00 0.01 0.02 0.03 0.03 0.02 0.00 0.01 0.00 0.01 0.02 0.07 0.25 0.46 0.48
0.08 0.05 0.10 0.11 0.20 0.12 0.06 0.03 0.03 0.03 0.02 0.01 0.00 0.00 0.00 0.00 0.00 0.00 0.00 0.00 0.00 0.01 0.00 0.00 0.00 0.00 0.00 0.00 0.01 0.00 0.01 0.02 0.03 0.04 0.03 0.02 0.01 0.00 0.00 0.02 0.06 0.15 0.39
0.09 0.07 0.09 0.07 0.09 0.11 0.05 0.02 0.03 0.04 0.02 0.02 0.00 0.04 0.04 0.02 0.00 0.00 0.00 0.00 0.01 0.02 0.02 0.01 0.00 0.00 0.00 0.00 0.00 0.00 0.00 0.00 0.01 0.03 0.04 0.06 0.05 0.02 0.01 0.02 0.03 0.06 0.11
0.08 0.11 0.10 0.09 0.10 0.15 0.07 0.06 0.03 0.04 0.20 0.08 0.02 0.11 0.16 0.09 0.11 0.02 0.00 0.00 0.00 0.00 0.02 0.05 0.03 0.01 0.00 0.00 0.00 0.00 0.00 0.00 0.00 0.00 0.01 0.01 0.02 0.02 0.01 0.02 0.03 0.04 0.03
0.08 0.15 0.19 0.18 0.15 0.21 0.16 0.12 0.09 0.08 0.49 0.32 0.19 0.08 0.06 0.08 0.26 0.20 0.04 0.00 0.00 0.01 0.01 0.04 0.04 0.03 0.03 0.01 0.00 0.00 0.00 0.00 0.00 0.00 0.00 0.00 0.00 0.01 0.01 0.03 0.04 0.05 0.06
0.16 0.20 0.26 0.31 0.26 0.24 0.31 0.39 0.33 0.28 0.43 0.31 0.12 0.14 0.08 0.07 0.14 0.13 0.10 0.08 0.03 0.03 0.03 0.03 0.03 0.03 0.07 0.07 0.07 0.06 0.04 0.01 0.00 0.00 0.00 0.00 0.00 0.01 0.02 0.04 0.07 0.08 0.10
0.30 0.35 0.33 0.28 0.32 0.32 0.33 0.39 0.44 0.54 0.53 0.49 0.38 0.36 0.31 0.26 0.18 0.17 0.14 0.15 0.21 0.15 0.10 0.05 0.01 0.02 0.07 0.10 0.12 0.10 0.09 0.08 0.06 0.03 0.01 0.01 0.01 0.01 0.04 0.06 0.09 0.13 0.15
0.73 0.31 0.21 0.18 0.19 0.24 0.27 0.25 0.27 0.22 0.26 0.32 0.35 0.32 0.28 0.24 0.26 0.32 0.28 0.20 0.17 0.08 0.02 0.00 0.00 0.00 0.07 0.20 0.22 0.22 0.18 0.13 0.10 0.09 0.09 0.08 0.06 0.04 0.06 0.06 0.07 0.11 0.17
0.29 0.18 0.12 0.11 0.12 0.16 0.17 0.16 0.15 0.12 0.15 0.19 0.22 0.24 0.24 0.18 0.18 0.19 0.21 0.25 0.19 0.05 0.01 0.00 0.00 0.00 0.00 0.03 0.11 0.17 0.15 0.10 0.11 0.16 0.19 0.16 0.11 0.08 0.07 0.05 0.04 0.04 0.05
0.20 0.19 0.16 0.12 0.11 0.11 0.12 0.14 0.14 0.16 0.17 0.16 0.18 0.18 0.16 0.12 0.13 0.12 0.13 0.19 0.34 0.26 0.05 0.00 0.00 0.00 0.00 0.00 0.03 0.09 0.15 0.13 0.08 0.07 0.07 0.09 0.11 0.11 0.11 0.08 0.06 0.04 0.03
0.29 0.37 0.27 0.20 0.14 0.12 0.14 0.15 0.11 0.11 0.14 0.12 0.14 0.16 0.16 0.14 0.17 0.16 0.17 0.19 0.18 0.30 0.27 0.05 0.03 0.02 0.01 0.00 0.01 0.03 0.03 0.06 0.05 0.04 0.05 0.06 0.06 0.06 0.08 0.06 0.06 0.09 0.07
0.47 0.57 0.41 0.25 0.20 0.21 0.18 0.15 0.17 0.20 0.19 0.20 0.21 0.22 0.22 0.21 0.22 0.25 0.31 0.37 0.42 0.44 0.47 0.24 0.13 0.13 0.09 0.03 0.01 0.00 0.01 0.03 0.05 0.03 0.03 0.04 0.06 0.05 0.05 0.07 0.05 0.05 0.07
0.16 0.17 0.20 0.17 0.14 0.19 0.25 0.24 0.20 0.17 0.21 0.31 0.41 0.40 0.32 0.29 0.33 0.34 0.35 0.31 0.27 0.25 0.30 0.25 0.13 0.09 0.07 0.05 0.04 0.01 0.01 0.00 0.02 0.05 0.08 0.06 0.12 0.16 0.08 0.04 0.05 0.05 0.03
0.21 0.16 0.13 0.15 0.14 0.16 0.19 0.21 0.22 0.28 0.40 0.42 0.32 0.28 0.25 0.26 0.26 0.22 0.21 0.19 0.17 0.19 0.24 0.31 0.23 0.10 0.07 0.06 0.05 0.04 0.04 0.04 0.03 0.04 0.08 0.12 0.15 0.13 0.19 0.10 0.03 0.02 0.02
0.16 0.13 0.11 0.11 0.11 0.10 0.14 0.21 0.29 0.25 0.15 0.13 0.12 0.12 0.12 0.13 0.13 0.13 0.14 0.13 0.14 0.16 0.19 0.23 0.28 0.21 0.13 0.08 0.07 0.08 0.07 0.06 0.06 0.05 0.06 0.09 0.16 0.13 0.11 0.15 0.12 0.05 0.04
0.16 0.17 0.14 0.11 0.12 0.15 0.21 0.18 0.10 0.06 0.05 0.04 0.03 0.04 0.05 0.11 0.12 0.10 0.11 0.13 0.15 0.20 0.26 0.27 0.29 0.23 0.19 0.13 0.08 0.09 0.11 0.11 0.11 0.09 0.05 0.04 0.06 0.12 0.10 0.13 0.19 0.17 0.12
0.22 0.20 0.19 0.27 0.36 0.33 0.24 0.17 0.12 0.07 0.06 0.06 0.06 0.05 0.07 0.15 0.10 0.16 0.17 0.22 0.26 0.32 0.36 0.31 0.28 0.28 0.21 0.16 0.22 0.32 0.30 0.25 0.23 0.13 0.11 0.07 0.04 0.06 0.07 0.13 0.13 0.19 0.17
0.33 0.33 0.42 0.41 0.28 0.13 0.19 0.16 0.15 0.08 0.08 0.07 0.08 0.08 0.09 0.11 0.17 0.12 0.22 0.31 0.32 0.36 0.33 0.27 0.29 0.25 0.27 0.28 0.34 0.35 0.29 0.29 0.29 0.15 0.12 0.07 0.01 0.01 0.01 0.03 0.04 0.12 0.20
0.38 0.36 0.26 0.18 0.14 0.14 0.22 0.18 0.19 0.07 0.06 0.07 0.07 0.07 0.07 0.07 0.13 0.13 0.15 0.18 0.17 0.20 0.21 0.18 0.23 0.34 0.43 0.48 0.48 0.44 0.39 0.32 0.21 0.10 0.07 0.10 0.02 0.03 0.02 0.03 0.02 0.04 0.13
0.18 0.14 0.11 0.11 0.11 0.12 0.22 0.16 0.14 0.04 0.09 0.12 0.12 0.14 0.18 0.18 0.45 0.45 0.33 0.36 0.45 0.52 0.59 0.56 0.55 0.52 0.47 0.41 0.35 0.41 0.34 0.29 0.20 0.07 0.04 0.14 0.06 0.04 0.02 0.01 0.00 0.00 0.02
0.09 0.06 0.08 0.08 0.15 0.10 0.21 0.14 0.11 0.05 0.09 0.10 0.14 0.24 0.47 0.34 0.60 0.45 0.37 0.31 0.37 0.38 0.33 0.34 0.33 0.29 0.23 0.18 0.15 0.18 0.22 0.39 0.33 0.26 0.10 0.23 0.07 0.11 0.17 0.02 0.00 0.00 0.01

GFSMA_prec_precacc_075.txt.gz
Total_Precipitation_Accumulation
0.13 0.16 0.02 0.00 0.00 0.00 0.00 0.00 0.00 0.00 0.00 0.00 0.00 0.00 0.00 0.00 0.00 0.00 0.00 0.00 0.00 0.00 0.00 0.02 0.02 0.01 0.00 0.00 0.00 0.00 0.00 0.00 0.01 0.05 0.07 0.08 0.10 0.15 0.19 0.21 0.22 0.17 0.21
0.15 0.15 0.06 0.02 0.01 0.01 0.00 0.00 0.00 0.00 0.00 0.00 0.00 0.00 0.00 0.00 0.00 0.00 0.00 0.00 0.00 0.00 0.00 0.00 0.03 0.02 0.01 0.00 0.00 0.00 0.00 0.00 0.00 0.01 0.05 0.08 0.08 0.10 0.12 0.16 0.23 0.28 0.23
0.09 0.11 0.11 0.12 0.08 0.00 0.00 0.00 0.00 0.00 0.00 0.00 0.00 0.00 0.00 0.00 0.00 0.00 0.00 0.00 0.00 0.00 0.00 0.01 0.01 0.04 0.03 0.00 0.00 0.00 0.00 0.00 0.00 0.01 0.01 0.05 0.06 0.06 0.11 0.10 0.16 0.28 0.35
0.10 0.09 0.09 0.08 0.12 0.05 0.00 0.00 0.00 0.00 0.00 0.00 0.00 0.00 0.00 0.00 0.00 0.00 0.00 0.00 0.00 0.00 0.00 0.00 0.01 0.01 0.02 0.00 0.01 0.00 0.00 0.00 0.00 0.01 0.01 0.02 0.03 0.05 0.05 0.08 0.19 0.41 0.42
0.07 0.04 0.08 0.12 0.09 0.07 0.02 0.00 0.00 0.00 0.00 0.00 0.00 0.00 0.00 0.00 0.00 0.00 0.00 0.00 0.00 0.00 0.00 0.00 0.00 0.00 0.01 0.01 0.01 0.01 0.02 0.01 0.00 0.00 0.00 0.00 0.01 0.03 0.05 0.15 0.26 0.36 0.41
0.05 0.04 0.08 0.21 0.23 0.14 0.08 0.02 0.04 0.02 0.01 0.00 0.00 0.00 0.00 0.00 0.00 0.00 0.00 0.00 0.00 0.00 0.00 0.00 0.00 0.00 0.00 0.00 0.00 0.01 0.02 0.03 0.03 0.02 0.00 0.01 0.00 0.01 0.02 0.07 0.25 0.46 0.48
0.08 0.06 0.11 0.14 0.27 0.25 0.12 0.04 0.03 0.03 0.02 0.01 0.00 0.00 0.00 0.00 0.00 0.00 0.00 0.00 0.00 0.01 0.00 0.00 0.00 0.00 0.00 0.00 0.01 0.00 0.01 0.02 0.04 0.05 0.03 0.02 0.01 0.00 0.00 0.02 0.06 0.15 0.39
0.09 0.07 0.09 0.07 0.11 0.16 0.09 0.03 0.03 0.04 0.02 0.02 0.00 0.04 0.04 0.02 0.00 0.00 0.00 0.00 0.01 0.02 0.02 0.01 0.00 0.00 0.00 0.00 0.00 0.00 0.00 0.00 0.02 0.05 0.07 0.07 0.05 0.02 0.01 0.02 0.03 0.06 0.11
0.08 0.11 0.10 0.09 0.10 0.16 0.08 0.06 0.03 0.04 0.20 0.08 0.02 0.11 0.16 0.09 0.11 0.02 0.00 0.00 0.00 0.00 0.02 0.05 0.03 0.01 0.00 0.00 0.00 0.00 0.00 0.00 0.00 0.01 0.02 0.04 0.04 0.03 0.02 0.02 0.03 0.04 0.03
0.08 0.15 0.19 0.18 0.15 0.21 0.16 0.12 0.09 0.08 0.49 0.33 0.20 0.09 0.08 0.14 0.28 0.22 0.06 0.00 0.00 0.01 0.01 0.04 0.04 0.03 0.03 0.01 0.00 0.00 0.00 0.00 0.00 0.00 0.00 0.01 0.01 0.02 0.02 0.03 0.04 0.05 0.06
0.16 0.20 0.26 0.31 0.26 0.24 0.31 0.39 0.33 0.29 0.47 0.33 0.12 0.15 0.09 0.10 0.17 0.15 0.11 0.09 0.03 0.03 0.03 0.03 0.03 0.03 0.07 0.07 0.07 0.06 0.04 0.01 0.00 0.00 0.00 0.00 0.00 0.01 0.02 0.04 0.07 0.08 0.11
0.30 0.35 0.33 0.29 0.32 0.32 0.33 0.40 0.44 0.57 0.62 0.53 0.38 0.36 0.31 0.26 0.18 0.20 0.16 0.16 0.21 0.15 0.10 0.05 0.01 0.02 0.07 0.10 0.12 0.10 0.09 0.08 0.06 0.03 0.01 0.01 0.01 0.01 0.04 0.06 0.09 0.13 0.15
0.73 0.31 0.21 0.18 0.19 0.25 0.28 0.25 0.29 0.27 0.34 0.37 0.35 0.32 0.28 0.25 0.27 0.35 0.32 0.22 0.18 0.09 0.02 0.00 0.00 0.00 0.07 0.20 0.22 0.22 0.18 0.13 0.10 0.09 0.09 0.08 0.06 0.04 0.06 0.06 0.07 0.11 0.17
0.29 0.18 0.12 0.11 0.12 0.16 0.18 0.17 0.17 0.13 0.16 0.23 0.24 0.24 0.24 0.18 0.18 0.20 0.22 0.26 0.19 0.05 0.01 0.00 0.00 0.00 0.00 0.03 0.11 0.17 0.15 0.10 0.11 0.16 0.19 0.16 0.11 0.08 0.07 0.05 0.04 0.04 0.05
0.20 0.19 0.16 0.12 0.11 0.11 0.12 0.15 0.15 0.16 0.17 0.17 0.18 0.18 0.16 0.12 0.13 0.12 0.14 0.21 0.36 0.27 0.05 0.00 0.00 0.00 0.00 0.00 0.03 0.09 0.15 0.13 0.08 0.07 0.07 0.09 0.11 0.11 0.11 0.08 0.06 0.04 0.03
0.29 0.37 0.27 0.20 0.14 0.12 0.14 0.15 0.11 0.11 0.14 0.12 0.14 0.16 0.16 0.14 0.17 0.16 0.18 0.21 0.22 0.32 0.27 0.05 0.03 0.02 0.01 0.00 0.01 0.03 0.03 0.06 0.05 0.04 0.05 0.07 0.06 0.06 0.08 0.06 0.06 0.09 0.07
0.47 0.57 0.41 0.25 0.20 0.21 0.18 0.15 0.17 0.20 0.19 0.20 0.21 0.22 0.22 0.21 0.22 0.25 0.32 0.38 0.42 0.45 0.48 0.24 0.13 0.13 0.09 0.03 0.01 0.00 0.01 0.03 0.05 0.05 0.05 0.06 0.07 0.05 0.05 0.07 0.05 0.05 0.07
0.16 0.17 0.20 0.17 0.14 0.19 0.25 0.24 0.20 0.17 0.21 0.31 0.41 0.40 0.32 0.29 0.33 0.34 0.35 0.31 0.27 0.25 0.30 0.26 0.14 0.10 0.08 0.07 0.06 0.03 0.02 0.01 0.03 0.07 0.10 0.08 0.13 0.16 0.08 0.04 0.05 0.05 0.03
0.21 0.16 0.13 0.15 0.14 0.16 0.19 0.21 0.22 0.28 0.40 0.42 0.32 0.28 0.25 0.26 0.26 0.22 0.21 0.19 0.17 0.19 0.24 0.32 0.23 0.12 0.09 0.09 0.09 0.07 0.07 0.07 0.04 0.05 0.09 0.13 0.16 0.14 0.20 0.12 0.05 0.04 0.03
0.16 0.13 0.11 0.11 0.11 0.10 0.14 0.21 0.29 0.25 0.15 0.13 0.12 0.12 0.12 0.13 0.13 0.13 0.14 0.13 0.15 0.18 0.21 0.24 0.28 0.21 0.14 0.11 0.14 0.16 0.13 0.11 0.11 0.07 0.09 0.14 0.21 0.17 0.15 0.19 0.15 0.07 0.04
0.16 0.17 0.14 0.11 0.12 0.15 0.21 0.18 0.10 0.06 0.05 0.04 0.03 0.04 0.05 0.11 0.12 0.10 0.11 0.14 0.16 0.21 0.28 0.30 0.32 0.25 0.21 0.20 0.21 0.20 0.22 0.20 0.21 0.23 0.19 0.14 0.13 0.16 0.15 0.18 0.24 0.19 0.12
0.22 0.20 0.19 0.27 0.36 0.33 0.24 0.17 0.12 0.07 0.06 0.06 0.06 0.05 0.07 0.15 0.10 0.16 0.17 0.22 0.27 0.35 0.39 0.33 0.31 0.34 0.31 0.33 0.35 0.43 0.44 0.41 0.40 0.33 0.34 0.28 0.20 0.19 0.18 0.25 0.23 0.21 0.18
0.33 0.33 0.42 0.41 0.28 0.13 0.19 0.16 0.15 0.08 0.08 0.07 0.08 0.08 0.09 0.11 0.17 0.12 0.22 0.32 0.33 0.39 0.39 0.37 0.41 0.39 0.39 0.39 0.44 0.52 0.51 0.53 0.55 0.42 0.37 0.31 0.22 0.18 0.13 0.10 0.06 0.12 0.20
0.38 0.36 0.26 0.18 0.14 0.14 0.22 0.18 0.19 0.07 0.06 0.07 0.07 0.07 0.07 0.07 0.13 0.14 0.15 0.18 0.17 0.22 0.26 0.28 0.37 0.51 0.61 0.64 0.63 0.62 0.59 0.55 0.45 0.32 0.26 0.24 0.12 0.12 0.06 0.04 0.03 0.04 0.13
0.18 0.14 0.11 0.11 0.11 0.12 0.22 0.16 0.14 0.04 0.09 0.12 0.12 0.14 0.19 0.18 0.46 0.47 0.35 0.37 0.50 0.59 0.73 0.70 0.65 0.65 0.63 0.55 0.47 0.49 0.46 0.43 0.35 0.19 0.13 0.20 0.08 0.06 0.03 0.01 0.01 0.01 0.02
0.11 0.08 0.09 0.08 0.15 0.10 0.22 0.14 0.11 0.05 0.09 0.11 0.15 0.25 0.49 0.36 0.63 0.51 0.42 0.32 0.42 0.47 0.40 0.43 0.44 0.40 0.34 0.30 0.29 0.31 0.33 0.48 0.42 0.35 0.15 0.26 0.08 0.11 0.17 0.02 0.00 0.00 0.01

GFSMA_prec_precacc_078.txt.gz
Total_Precipitation_Accumulation
0.13 0.16 0.02 0.00 0.00 0.00 0.00 0.00 0.00 0.00 0.00 0.00 0.00 0.00 0.00 0.00 0.00 0.00 0.00 0.00 0.00 0.00 0.00 0.02 0.02 0.01 0.00 0.00 0.00 0.00 0.00 0.00 0.01 0.05 0.07 0.08 0.10 0.15 0.19 0.21 0.22 0.17 0.21
0.15 0.15 0.06 0.02 0.01 0.01 0.00 0.00 0.00 0.00 0.00 0.00 0.00 0.00 0.00 0.00 0.00 0.00 0.00 0.00 0.00 0.00 0.00 0.00 0.03 0.02 0.01 0.00 0.00 0.00 0.00 0.00 0.00 0.01 0.05 0.08 0.08 0.10 0.12 0.16 0.23 0.28 0.23
0.09 0.11 0.11 0.12 0.08 0.00 0.00 0.00 0.00 0.00 0.00 0.00 0.00 0.00 0.00 0.00 0.00 0.00 0.00 0.00 0.00 0.00 0.00 0.01 0.01 0.04 0.03 0.00 0.00 0.00 0.00 0.00 0.00 0.01 0.01 0.05 0.06 0.06 0.11 0.10 0.16 0.28 0.35
0.10 0.09 0.09 0.08 0.12 0.05 0.00 0.00 0.00 0.00 0.00 0.00 0.00 0.00 0.00 0.00 0.00 0.00 0.00 0.00 0.00 0.00 0.00 0.00 0.01 0.01 0.02 0.00 0.01 0.00 0.00 0.00 0.00 0.01 0.01 0.02 0.03 0.05 0.05 0.08 0.19 0.41 0.42
0.07 0.04 0.08 0.12 0.09 0.07 0.02 0.00 0.00 0.00 0.00 0.00 0.00 0.00 0.00 0.00 0.00 0.00 0.00 0.00 0.00 0.00 0.00 0.00 0.00 0.00 0.01 0.01 0.01 0.01 0.02 0.01 0.00 0.00 0.00 0.00 0.01 0.03 0.05 0.15 0.26 0.36 0.41
0.05 0.04 0.08 0.21 0.23 0.14 0.08 0.02 0.04 0.02 0.01 0.00 0.00 0.00 0.00 0.00 0.00 0.00 0.00 0.00 0.00 0.00 0.00 0.00 0.00 0.00 0.00 0.00 0.00 0.01 0.02 0.03 0.03 0.02 0.00 0.01 0.00 0.01 0.02 0.07 0.25 0.46 0.48
0.08 0.06 0.11 0.14 0.27 0.25 0.12 0.04 0.03 0.03 0.02 0.01 0.00 0.00 0.00 0.00 0.00 0.00 0.00 0.00 0.00 0.01 0.00 0.00 0.00 0.00 0.00 0.00 0.01 0.00 0.01 0.03 0.05 0.05 0.03 0.02 0.01 0.00 0.00 0.02 0.06 0.15 0.39
0.09 0.07 0.09 0.07 0.11 0.16 0.10 0.04 0.03 0.04 0.02 0.02 0.00 0.04 0.04 0.02 0.00 0.00 0.00 0.00 0.01 0.02 0.02 0.01 0.00 0.00 0.00 0.00 0.00 0.00 0.00 0.00 0.03 0.07 0.08 0.07 0.05 0.02 0.01 0.02 0.03 0.06 0.11
0.08 0.11 0.10 0.09 0.10 0.16 0.08 0.06 0.03 0.04 0.20 0.08 0.02 0.11 0.16 0.09 0.11 0.02 0.00 0.00 0.00 0.00 0.02 0.05 0.03 0.01 0.00 0.00 0.00 0.00 0.00 0.00 0.00 0.02 0.05 0.07 0.06 0.03 0.02 0.02 0.03 0.04 0.03
0.08 0.15 0.19 0.18 0.15 0.21 0.16 0.13 0.09 0.08 0.49 0.33 0.20 0.09 0.08 0.14 0.28 0.22 0.06 0.00 0.00 0.01 0.01 0.04 0.04 0.03 0.03 0.01 0.00 0.00 0.00 0.00 0.00 0.00 0.01 0.02 0.03 0.04 0.04 0.05 0.05 0.05 0.06
0.17 0.20 0.26 0.31 0.26 0.24 0.31 0.40 0.34 0.29 0.48 0.33 0.12 0.15 0.09 0.10 0.17 0.15 0.11 0.09 0.03 0.03 0.03 0.03 0.03 0.03 0.07 0.07 0.07 0.06 0.04 0.01 0.00 0.00 0.00 0.00 0.01 0.02 0.04 0.06 0.08 0.09 0.11
0.30 0.35 0.33 0.29 0.32 0.33 0.34 0.40 0.45 0.57 0.62 0.54 0.39 0.36 0.31 0.26 0.19 0.20 0.16 0.16 0.21 0.15 0.10 0.05 0.01 0.02 0.07 0.10 0.12 0.10 0.09 0.08 0.06 0.03 0.01 0.01 0.01 0.02 0.04 0.06 0.09 0.13 0.15
0.73 0.31 0.21 0.18 0.19 0.25 0.29 0.26 0.29 0.28 0.35 0.38 0.36 0.33 0.28 0.25 0.27 0.35 0.32 0.22 0.18 0.09 0.02 0.00 0.00 0.00 0.07 0.20 0.22 0.22 0.18 0.13 0.10 0.09 0.09 0.08 0.06 0.04 0.06 0.06 0.07 0.11 0.17
0.29 0.18 0.12 0.11 0.12 0.16 0.18 0.18 0.18 0.15 0.17 0.23 0.25 0.25 0.25 0.19 0.18 0.20 0.22 0.27 0.19 0.06 0.01 0.00 0.00 0.00 0.00 0.03 0.11 0.17 0.15 0.10 0.11 0.16 0.19 0.16 0.11 0.08 0.07 0.05 0.04 0.04 0.05
0.20 0.19 0.16 0.12 0.11 0.11 0.12 0.15 0.15 0.17 0.18 0.18 0.19 0.19 0.16 0.13 0.13 0.13 0.15 0.21 0.37 0.27 0.05 0.00 0.00 0.00 0.00 0.00 0.03 0.09 0.15 0.13 0.08 0.07 0.07 0.09 0.11 0.11 0.11 0.09 0.06 0.04 0.03
0.29 0.37 0.27 0.20 0.14 0.13 0.15 0.15 0.11 0.11 0.14 0.12 0.14 0.16 0.17 0.15 0.18 0.17 0.18 0.21 0.22 0.32 0.27 0.05 0.03 0.02 0.01 0.00 0.01 0.03 0.03 0.06 0.05 0.05 0.06 0.08 0.07 0.07 0.10 0.09 0.09 0.10 0.07
0.47 0.57 0.41 0.25 0.20 0.21 0.18 0.15 0.17 0.20 0.19 0.20 0.21 0.23 0.22 0.21 0.22 0.25 0.32 0.38 0.42 0.45 0.48 0.24 0.13 0.13 0.09 0.03 0.01 0.00 0.01 0.03 0.05 0.05 0.06 0.09 0.11 0.10 0.10 0.13 0.11 0.09 0.09
0.16 0.17 0.20 0.17 0.14 0.19 0.25 0.24 0.20 0.17 0.21 0.31 0.41 0.40 0.32 0.29 0.33 0.34 0.35 0.31 0.27 0.25 0.30 0.26 0.14 0.10 0.08 0.07 0.06 0.03 0.02 0.01 0.03 0.07 0.11 0.09 0.16 0.20 0.12 0.09 0.11 0.10 0.05
0.21 0.16 0.13 0.15 0.14 0.16 0.19 0.21 0.22 0.28 0.40 0.42 0.32 0.28 0.25 0.26 0.26 0.22 0.21 0.19 0.17 0.19 0.24 0.32 0.23 0.12 0.09 0.09 0.09 0.07 0.07 0.07 0.05 0.05 0.10 0.14 0.17 0.17 0.25 0.18 0.12 0.09 0.07
0.16 0.13 0.11 0.11 0.11 0.10 0.14 0.21 0.29 0.25 0.15 0.13 0.12 0.12 0.12 0.13 0.13 0.13 0.14 0.13 0.15 0.18 0.21 0.24 0.28 0.21 0.14 0.11 0.14 0.16 0.14 0.12 0.12 0.10 0.11 0.16 0.25 0.25 0.24 0.29 0.25 0.16 0.12
0.16 0.17 0.14 0.11 0.12 0.15 0.21 0.18 0.10 0.06 0.05 0.04 0.03 0.04 0.05 0.11 0.12 0.10 0.11 0.14 0.16 0.21 0.28 0.30 0.32 0.25 0.21 0.20 0.21 0.21 0.26 0.26 0.29 0.30 0.24 0.16 0.17 0.25 0.28 0.36 0.41 0.41 0.41
0.22 0.20 0.19 0.27 0.36 0.33 0.24 0.17 0.12 0.07 0.06 0.06 0.06 0.05 0.07 0.15 0.10 0.16 0.17 0.22 0.27 0.35 0.39 0.33 0.31 0.34 0.31 0.33 0.35 0.45 0.50 0.48 0.48 0.40 0.40 0.36 0.30 0.31 0.32 0.40 0.45 0.50 0.40
0.33 0.33 0.42 0.41 0.28 0.13 0.19 0.16 0.15 0.08 0.08 0.07 0.08 0.08 0.09 0.11 0.17 0.12 0.22 0.32 0.33 0.39 0.39 0.38 0.43 0.40 0.40 0.40 0.46 0.55 0.58 0.62 0.66 0.52 0.48 0.44 0.31 0.26 0.22 0.24 0.23 0.26 0.30
0.40 0.37 0.27 0.18 0.14 0.14 0.22 0.18 0.19 0.07 0.06 0.07 0.07 0.07 0.07 0.07 0.13 0.14 0.15 0.18 0.17 0.23 0.28 0.30 0.40 0.55 0.67 0.73 0.74 0.75 0.75 0.72 0.60 0.45 0.37 0.34 0.25 0.24 0.19 0.18 0.15 0.13 0.18
0.20 0.16 0.15 0.13 0.11 0.13 0.23 0.16 0.14 0.04 0.09 0.12 0.13 0.15 0.19 0.18 0.47 0.48 0.35 0.37 0.50 0.61 0.78 0.79 0.74 0.78 0.78 0.68 0.57 0.58 0.55 0.52 0.45 0.29 0.21 0.26 0.16 0.15 0.12 0.08 0.08 0.06 0.04
0.13 0.12 0.14 0.10 0.16 0.10 0.23 0.16 0.12 0.05 0.10 0.13 0.16 0.26 0.52 0.39 0.65 0.54 0.43 0.33 0.44 0.52 0.45 0.51 0.55 0.53 0.47 0.45 0.46 0.46 0.46 0.59 0.50 0.42 0.20 0.31 0.13 0.16 0.20 0.03 0.02 0.02 0.01